Time,TemperatureF,DewpointF,PressureIn,WindDirection,WindDirectionDegrees,WindSpeedMPH,WindSpeedGustMPH,Humidity,HourlyPrecipIn,Conditions,Clouds,dailyrainin,SoftwareType,DateUTC
2013-04-20 00:00:00,62.0,-99.9,30.22,ESE,117,4.0,4.0,-999,-99.99,,,-99.99,,2013-04-20 05:00:00,
2013-04-20 00:32:00,62.0,-99.9,30.22,ESE,117,4.0,4.0,-999,-99.99,,,-99.99,,2013-04-20 05:32:00,
2013-04-20 00:43:00,62.0,-99.9,30.22,ESE,117,4.0,4.0,-999,-99.99,,,-99.99,,2013-04-20 05:43:00,
2013-04-20 00:52:00,62.0,-99.9,30.22,ESE,117,4.0,4.0,-999,-99.99,,,-99.99,,2013-04-20 05:52:00,
2013-04-20 01:00:00,62.0,-99.9,30.21,ENE,64,4.0,6.0,-999,-99.99,,,-99.99,,2013-04-20 06:00:00,
2013-04-20 01:32:00,62.0,-99.9,30.21,ENE,64,4.0,6.0,-999,-99.99,,,-99.99,,2013-04-20 06:32:00,
2013-04-20 01:42:00,62.0,-99.9,30.21,ENE,64,4.0,6.0,-999,-99.99,,,-99.99,,2013-04-20 06:42:00,
2013-04-20 01:52:00,62.0,-99.9,30.21,ENE,64,4.0,6.0,-999,-99.99,,,-99.99,,2013-04-20 06:52:00,
2013-04-20 02:00:00,62.0,-99.9,30.20,ENE,69,5.0,6.0,-999,-99.99,,,-99.99,,2013-04-20 07:00:00,
2013-04-20 02:32:00,62.0,-99.9,30.20,ENE,69,5.0,6.0,-999,-99.99,,,-99.99,,2013-04-20 07:32:00,
2013-04-20 02:42:00,62.0,-99.9,30.20,ENE,69,5.0,6.0,-999,-99.99,,,-99.99,,2013-04-20 07:42:00,
2013-04-20 02:52:00,62.0,-99.9,30.20,ENE,69,5.0,6.0,-999,-99.99,,,-99.99,,2013-04-20 07:52:00,
2013-04-20 03:00:00,62.0,-99.9,30.19,NNE,25,4.0,4.0,-999,-99.99,,,-99.99,,2013-04-20 08:00:00,
2013-04-20 03:32:00,62.0,-99.9,30.19,NNE,25,4.0,4.0,-999,-99.99,,,-99.99,,2013-04-20 08:32:00,
2013-04-20 03:42:00,62.0,-99.9,30.19,NNE,25,4.0,4.0,-999,-99.99,,,-99.99,,2013-04-20 08:42:00,
2013-04-20 03:52:00,62.0,-99.9,30.19,NNE,25,4.0,4.0,-999,-99.99,,,-99.99,,2013-04-20 08:52:00,
2013-04-20 04:00:00,59.0,-99.9,30.19,West,263,4.0,4.0,-999,-99.99,,,-99.99,,2013-04-20 09:00:00,
2013-04-20 04:33:00,59.0,-99.9,30.19,West,263,4.0,4.0,-999,-99.99,,,-99.99,,2013-04-20 09:33:00,
2013-04-20 04:43:00,59.0,-99.9,30.19,West,263,4.0,4.0,-999,-99.99,,,-99.99,,2013-04-20 09:43:00,
2013-04-20 04:53:00,59.0,-99.9,30.19,West,263,4.0,4.0,-999,-99.99,,,-99.99,,2013-04-20 09:53:00,
2013-04-20 05:00:00,56.0,-99.9,30.18,West,266,5.0,6.0,-999,-99.99,,,-99.99,,2013-04-20 10:00:00,
2013-04-20 05:33:00,56.0,-99.9,30.18,West,266,5.0,6.0,-999,-99.99,,,-99.99,,2013-04-20 10:33:00,
2013-04-20 05:42:00,56.0,-99.9,30.18,West,266,5.0,6.0,-999,-99.99,,,-99.99,,2013-04-20 10:42:00,
2013-04-20 05:53:00,56.0,-99.9,30.18,West,266,5.0,6.0,-999,-99.99,,,-99.99,,2013-04-20 10:53:00,
2013-04-20 06:00:00,58.0,-99.9,30.17,NW,320,7.0,9.0,-999,-99.99,,,-99.99,,2013-04-20 11:00:00,
2013-04-20 06:32:00,58.0,-99.9,30.17,NW,320,7.0,9.0,-999,-99.99,,,-99.99,,2013-04-20 11:32:00,
2013-04-20 06:42:00,58.0,-99.9,30.17,NW,320,7.0,9.0,-999,-99.99,,,-99.99,,2013-04-20 11:42:00,
2013-04-20 06:53:00,58.0,-99.9,30.17,NW,320,7.0,9.0,-999,-99.99,,,-99.99,,2013-04-20 11:53:00,
2013-04-20 07:00:00,61.0,-99.9,30.18,NE,50,7.0,9.0,-999,-99.99,,,-99.99,,2013-04-20 12:00:00,
2013-04-20 07:32:00,61.0,-99.9,30.18,NE,50,7.0,9.0,-999,-99.99,,,-99.99,,2013-04-20 12:32:00,
2013-04-20 07:42:00,61.0,-99.9,30.18,NE,50,7.0,9.0,-999,-99.99,,,-99.99,,2013-04-20 12:42:00,
2013-04-20 07:52:00,61.0,-99.9,30.18,NE,50,7.0,9.0,-999,-99.99,,,-99.99,,2013-04-20 12:52:00,
2013-04-20 08:00:00,62.0,-99.9,30.18,NE,54,8.0,9.0,-999,-99.99,,,-99.99,,2013-04-20 13:00:00,
2013-04-20 08:32:00,62.0,-99.9,30.18,NE,54,8.0,9.0,-999,-99.99,,,-99.99,,2013-04-20 13:32:00,
2013-04-20 08:42:00,62.0,-99.9,30.18,NE,54,8.0,9.0,-999,-99.99,,,-99.99,,2013-04-20 13:42:00,
2013-04-20 08:52:00,62.0,-99.9,30.18,NE,54,8.0,9.0,-999,-99.99,,,-99.99,,2013-04-20 13:52:00,
2013-04-20 09:00:00,64.0,-99.9,30.20,East,79,10.0,12.0,-999,-99.99,,,-99.99,,2013-04-20 14:00:00,
2013-04-20 09:32:00,64.0,-99.9,30.20,East,79,10.0,12.0,-999,-99.99,,,-99.99,,2013-04-20 14:32:00,
2013-04-20 09:42:00,64.0,-99.9,30.20,East,79,10.0,12.0,-999,-99.99,,,-99.99,,2013-04-20 14:42:00,
2013-04-20 09:52:00,64.0,-99.9,30.20,East,79,10.0,12.0,-999,-99.99,,,-99.99,,2013-04-20 14:52:00,
2013-04-20 10:00:00,64.0,-99.9,30.20,East,82,12.0,16.0,-999,-99.99,,,-99.99,,2013-04-20 15:00:00,
2013-04-20 10:34:00,64.0,-99.9,30.20,East,82,12.0,16.0,-999,-99.99,,,-99.99,,2013-04-20 15:34:00,
2013-04-20 10:43:00,64.0,-99.9,30.20,East,82,12.0,16.0,-999,-99.99,,,-99.99,,2013-04-20 15:43:00,
2013-04-20 10:53:00,64.0,-99.9,30.20,East,82,12.0,16.0,-999,-99.99,,,-99.99,,2013-04-20 15:53:00,
2013-04-20 11:00:00,64.0,-99.9,30.20,ENE,76,12.0,15.0,-999,-99.99,,,-99.99,,2013-04-20 16:00:00,
2013-04-20 11:33:00,64.0,-99.9,30.20,ENE,76,12.0,15.0,-999,-99.99,,,-99.99,,2013-04-20 16:33:00,
2013-04-20 11:42:00,64.0,-99.9,30.20,ENE,76,12.0,15.0,-999,-99.99,,,-99.99,,2013-04-20 16:42:00,
2013-04-20 11:53:00,64.0,-99.9,30.20,ENE,76,12.0,15.0,-999,-99.99,,,-99.99,,2013-04-20 16:53:00,
2013-04-20 12:00:00,65.0,-99.9,30.19,ESE,103,12.0,18.0,-999,-99.99,,,-99.99,,2013-04-20 17:00:00,
2013-04-20 12:33:00,65.0,-99.9,30.19,ESE,103,12.0,18.0,-999,-99.99,,,-99.99,,2013-04-20 17:33:00,
2013-04-20 12:42:00,65.0,-99.9,30.19,ESE,103,12.0,18.0,-999,-99.99,,,-99.99,,2013-04-20 17:42:00,
2013-04-20 12:52:00,65.0,-99.9,30.19,ESE,103,12.0,18.0,-999,-99.99,,,-99.99,,2013-04-20 17:52:00,
2013-04-20 13:00:00,65.0,-99.9,30.17,East,84,12.0,17.0,-999,-99.99,,,-99.99,,2013-04-20 18:00:00,
2013-04-20 13:32:00,65.0,-99.9,30.17,East,84,12.0,17.0,-999,-99.99,,,-99.99,,2013-04-20 18:32:00,
2013-04-20 13:42:00,65.0,-99.9,30.17,East,84,12.0,17.0,-999,-99.99,,,-99.99,,2013-04-20 18:42:00,
2013-04-20 13:53:00,65.0,-99.9,30.17,East,84,12.0,17.0,-999,-99.99,,,-99.99,,2013-04-20 18:53:00,
2013-04-20 14:00:00,65.0,-99.9,30.14,East,88,13.0,16.0,-999,-99.99,,,-99.99,,2013-04-20 19:00:00,
2013-04-20 14:32:00,65.0,-99.9,30.14,East,88,13.0,16.0,-999,-99.99,,,-99.99,,2013-04-20 19:32:00,
2013-04-20 14:42:00,65.0,-99.9,30.14,East,88,13.0,16.0,-999,-99.99,,,-99.99,,2013-04-20 19:42:00,
2013-04-20 14:52:00,65.0,-99.9,30.14,East,88,13.0,16.0,-999,-99.99,,,-99.99,,2013-04-20 19:52:00,
2013-04-20 15:00:00,65.0,-99.9,30.11,East,84,18.0,21.0,-999,-99.99,,,-99.99,,2013-04-20 20:00:00,
2013-04-20 15:32:00,65.0,-99.9,30.11,East,84,18.0,21.0,-999,-99.99,,,-99.99,,2013-04-20 20:32:00,
2013-04-20 15:42:00,65.0,-99.9,30.11,East,84,18.0,21.0,-999,-99.99,,,-99.99,,2013-04-20 20:42:00,
2013-04-20 15:52:00,65.0,-99.9,30.11,East,84,18.0,21.0,-999,-99.99,,,-99.99,,2013-04-20 20:52:00,
2013-04-20 16:00:00,66.0,-99.9,30.09,East,94,14.0,19.0,-999,-99.99,,,-99.99,,2013-04-20 21:00:00,
2013-04-20 16:33:00,66.0,-99.9,30.09,East,94,14.0,19.0,-999,-99.99,,,-99.99,,2013-04-20 21:33:00,
2013-04-20 16:43:00,66.0,-99.9,30.09,East,94,14.0,19.0,-999,-99.99,,,-99.99,,2013-04-20 21:43:00,
2013-04-20 16:53:00,66.0,-99.9,30.09,East,94,14.0,19.0,-999,-99.99,,,-99.99,,2013-04-20 21:53:00,
2013-04-20 17:00:00,66.0,-99.9,30.06,SE,126,15.0,19.0,-999,-99.99,,,-99.99,,2013-04-20 22:00:00,
2013-04-20 17:33:00,66.0,-99.9,30.06,SE,126,15.0,19.0,-999,-99.99,,,-99.99,,2013-04-20 22:33:00,
2013-04-20 17:42:00,66.0,-99.9,30.06,SE,126,15.0,19.0,-999,-99.99,,,-99.99,,2013-04-20 22:42:00,
2013-04-20 17:53:00,66.0,-99.9,30.06,SE,126,15.0,19.0,-999,-99.99,,,-99.99,,2013-04-20 22:53:00,
2013-04-20 18:00:00,67.0,-99.9,30.05,ESE,119,13.0,18.0,-999,-99.99,,,-99.99,,2013-04-20 23:00:00,
2013-04-20 18:32:00,67.0,-99.9,30.05,ESE,119,13.0,18.0,-999,-99.99,,,-99.99,,2013-04-20 23:32:00,
2013-04-20 18:42:00,67.0,-99.9,30.05,ESE,119,13.0,18.0,-999,-99.99,,,-99.99,,2013-04-20 23:42:00,
2013-04-20 18:53:00,67.0,-99.9,30.05,ESE,119,13.0,18.0,-999,-99.99,,,-99.99,,2013-04-20 23:53:00,
2013-04-20 19:00:00,67.0,-99.9,30.04,SE,127,13.0,18.0,-999,-99.99,,,-99.99,,2013-04-21 00:00:00,
2013-04-20 19:32:00,67.0,-99.9,30.04,SE,127,13.0,18.0,-999,-99.99,,,-99.99,,2013-04-21 00:32:00,
2013-04-20 19:42:00,67.0,-99.9,30.04,SE,127,13.0,18.0,-999,-99.99,,,-99.99,,2013-04-21 00:42:00,
2013-04-20 19:52:00,67.0,-99.9,30.04,SE,127,13.0,18.0,-999,-99.99,,,-99.99,,2013-04-21 00:52:00,
2013-04-20 20:00:00,66.0,-99.9,30.05,ESE,119,11.0,16.0,-999,-99.99,,,-99.99,,2013-04-21 01:00:00,
2013-04-20 20:32:00,66.0,-99.9,30.05,ESE,119,11.0,16.0,-999,-99.99,,,-99.99,,2013-04-21 01:32:00,
2013-04-20 20:42:00,66.0,-99.9,30.05,ESE,119,11.0,16.0,-999,-99.99,,,-99.99,,2013-04-21 01:42:00,
2013-04-20 20:52:00,66.0,-99.9,30.05,ESE,119,11.0,16.0,-999,-99.99,,,-99.99,,2013-04-21 01:52:00,
2013-04-20 21:00:00,67.0,-99.9,30.07,ESE,107,13.0,15.0,-999,-99.99,,,-99.99,,2013-04-21 02:00:00,
2013-04-20 21:32:00,67.0,-99.9,30.07,ESE,107,13.0,15.0,-999,-99.99,,,-99.99,,2013-04-21 02:32:00,
2013-04-20 21:42:00,67.0,-99.9,30.07,ESE,107,13.0,15.0,-999,-99.99,,,-99.99,,2013-04-21 02:42:00,
2013-04-20 21:52:00,67.0,-99.9,30.07,ESE,107,13.0,15.0,-999,-99.99,,,-99.99,,2013-04-21 02:52:00,
2013-04-20 22:00:00,67.0,-99.9,30.08,ESE,114,15.0,18.0,-999,-99.99,,,-99.99,,2013-04-21 03:00:00,
2013-04-20 22:33:00,67.0,-99.9,30.08,ESE,114,15.0,18.0,-999,-99.99,,,-99.99,,2013-04-21 03:33:00,
2013-04-20 22:43:00,67.0,-99.9,30.08,ESE,114,15.0,18.0,-999,-99.99,,,-99.99,,2013-04-21 03:43:00,
2013-04-20 22:53:00,67.0,-99.9,30.08,ESE,114,15.0,18.0,-999,-99.99,,,-99.99,,2013-04-21 03:53:00,
2013-04-20 23:00:00,67.0,-99.9,30.09,ESE,121,12.0,15.0,-999,-99.99,,,-99.99,,2013-04-21 04:00:00,
2013-04-20 23:33:00,67.0,-99.9,30.09,ESE,121,12.0,15.0,-999,-99.99,,,-99.99,,2013-04-21 04:33:00,
2013-04-20 23:43:00,67.0,-99.9,30.09,ESE,121,12.0,15.0,-999,-99.99,,,-99.99,,2013-04-21 04:43:00,
2013-04-20 23:53:00,67.0,-99.9,30.09,ESE,121,12.0,15.0,-999,-99.99,,,-99.99,,2013-04-21 04:53:00,